Regional Weather Roundup
Issued by NWS State College, PA

Home | Current Version | Previous Version | Graphics & Text | Print | Product List | Glossary On
Versions: 1 2 3 4 5 6 7 8 9 10 11 12 13 14 15 16 17 18 19 20 21 22 23 24 25 26 27 28 29 30 31 32 33 34 35 36 37 38 39 40 41 42 43 44 45 46 47 48 49 50
000
ASUS41 KCTP 011110
RWRCTP

REGIONAL WEATHER ROUNDUP
NATIONAL WEATHER SERVICE STATE COLLEGE PA
700 AM EDT TUE SEP 01 2015

Note: "fair" indicates few or no clouds below 12,000 feet with no
significant weather and/or obstructions to visibility.

* = STATION THAT DOES NOT REPORT PRECIPITATION /E.G. RAIN...SNOW...ETC/
    THUNDER OR FOG.

PAZ002>004-007>009-013>016-020>023-029>032-011200-
WESTERN PENNSYLVANIA

CITY           SKY/WX    TMP DP  RH WIND       PRES   REMARKS
ERIE           CLEAR     66  61  84 S8        30.10R
MEADVILLE      CLEAR     65  62  90 CALM      30.14R FOG
FRANKLIN*      MOCLDY    63  61  94 SW3       30.16R
NEW CASTLE     FOG       63  63 100 CALM      30.14R VSB<1/4
BEAVER COUNTY  CLEAR     68  66  94 CALM      30.13  FOG
BUTLER*          N/A     63  63 100 CALM      30.15R VSB 1/4
PITTSBURGH INT PTCLDY    66  63  90 CALM      30.13R FOG
PITTSBURGH     CLEAR     66  62  87 S5        30.12R FOG
INDIANA*       PTCLDY    64  63  94 CALM      30.17R
LATROBE        CLEAR     63  63 100 CALM      30.14R
WASHINGTON CO*   N/A     61  61 100 CALM      30.14R VSB 3/4
$$

PAZ004>006-010>012-017>019-024>028-033>037-041-042-045-046-049>053-011200-
CENTRAL PENNSYLVANIA

CITY           SKY/WX    TMP DP  RH WIND       PRES   REMARKS
BRADFORD       FOG       51  50  96 E3        30.16R VSB<1/4
DUBOIS         FOG       65  62  90 CALM      30.14R VSB<1/4
CLEARFIELD     FOG       62  61  96 SW3       30.14R VSB<1/4
JOHNSTOWN      CLEAR     64  61  90 W7        30.17R
ALTOONA        CLEAR     62  60  93 CALM      30.13R FOG
STATE COLLEGE  PTCLDY    63  63 100 CALM      30.12R FOG
WILLIAMSPORT   CLOUDY    67  65  93 W3        30.08R FOG
SELINSGROVE    CLOUDY    63  62  97 CALM      30.08R FOG
FT INDIANTOWN  PTCLDY    63  63  99 CALM      30.06S
CAPITAL CITY   CLEAR     70  65  84 NW3       30.06R
HARRISBURG     CLEAR     71  66  84 NW7       30.05R
YORK           FOG       61  60  97 CALM      30.07R VSB 1/4
$$

PAZ038>040-043-044-047-048-054-055-060>062-067>071-011200-
EASTERN PENNSYLVANIA

CITY           SKY/WX    TMP DP  RH WIND       PRES   REMARKS
SCRANTON       PTCLDY    65  62  90 CALM      30.09R FOG
MOUNT POCONO   CLEAR     60  58  92 N6        30.12R FOG
ALLENTOWN      CLEAR     66  64  93 CALM      30.06R
QUAKERTOWN*    SUNNY     64  64 100 CALM      30.06R
READING        CLEAR     68  65  90 CALM      30.05R
LANCASTER      CLEAR     67  66  97 W3        30.06R FOG
COATESVILLE    SUNNY     72  68  88 NW7       30.07R
POTTSTOWN      CLEAR     66  66 100 CALM      30.07R FOG
BLUE BELL        N/A     68  68 100 CALM      30.04R
DOYLESTOWN     CLEAR     67  66  97 CALM      30.04R
WILLOW GROVE   NOT AVBL
NORTH PHILA    CLEAR     73  65  75 CALM      30.04R
PHILADELPHIA   CLEAR     75  67  76 W3        30.03R
$$


USA.gov is the U.S. government's official web portal to all federal, state and local government web resources and services.